Tracking 34142 objects as of 18-May-2026
HD Live streaming from Space Station
objects crossing your sky now

OPS 6582 (TRANSIT 5B-5)

Track OPS 6582 (TRANSIT 5B-5) now!
10-day predictions
OPS 6582 (TRANSIT 5B-5) is classified as:


NORAD ID: 965
Int'l Code: 1964-083D
Perigee: 1,022.7 km
Apogee: 1,084.7 km
Inclination: 90.1 °
Period: 106.1 minutes
Semi major axis: 7424 km
RCS: 1.0908 m2 (large)
Launch date: December 13, 1964
Source: United States (US)
Launch site: AIR FORCE WESTERN TEST RANGE (AFWTR)
Your satellite tracking list
Your tracking list is empty




NASA's NSSDC Master Catalog

Two Line Element Set (TLE):
1   965U 64083D   26138.15025237  .00000061  00000-0  71961-4 0  9991
2   965  90.0787 202.7968 0041711   8.7198  19.7918 13.57009799 39540
Source of the keplerian elements: AFSPC